| time (UTC) | temp F | wind direction | speed MPH | gust MPH | rain 1hr in | rain 24hr in | rain mn in | humidity % | barometer mb |
| 20260505010744 | 62 | 271 | 5.0 | 7.0 | 0.00 | 0.00 | 0.00 | 24 | 1012.9 |
| 20260505010241 | 62 | 234 | 7.0 | 10.0 | 0.00 | 0.00 | 0.00 | 24 | 1013.3 |
| 20260505005737 | 62 | 270 | 7.0 | 9.0 | 0.00 | 0.00 | 0.00 | 24 | 1012.9 |
| 20260505005234 | 62 | 273 | 8.0 | 10.0 | 0.00 | 0.00 | 0.00 | 23 | 1013.2 |
| 20260505004732 | 62 | 269 | 7.0 | 10.0 | 0.00 | 0.00 | 0.00 | 23 | 1013.1 |
| 20260505004228 | 62 | 293 | 7.0 | 9.0 | 0.00 | 0.00 | 0.00 | 23 | 1012.9 |
| 20260505003725 | 63 | 239 | 5.0 | 7.0 | 0.00 | 0.00 | 0.00 | 22 | 1012.9 |
| 20260505003223 | 63 | 243 | 6.0 | 7.0 | 0.00 | 0.00 | 0.00 | 22 | 1013.2 |
| 20260505002719 | 63 | 224 | 12.0 | 14.0 | 0.00 | 0.00 | 0.00 | 22 | 1013.2 |
| 20260505002217 | 63 | 254 | 6.0 | 7.0 | 0.00 | 0.00 | 0.00 | 22 | 1013.4 |
| 20260505001714 | 63 | 273 | 7.0 | 12.0 | 0.00 | 0.00 | 0.00 | 21 | 1013.2 |
| 20260505001212 | 63 | 239 | 5.0 | 7.0 | 0.00 | 0.00 | 0.00 | 21 | 1013.2 |
| 20260505000708 | 63 | 307 | 8.0 | 9.0 | 0.00 | 0.00 | 0.00 | 21 | 1013.3 |
| 20260505000206 | 64 | 276 | 5.0 | 7.0 | 0.00 | 0.00 | 0.00 | 21 | 1013.2 |
| 20260504235703 | 63 | 248 | 8.0 | 10.0 | 0.00 | 0.00 | 0.00 | 21 | 1013.2 |
| 20260504235158 | 64 | 192 | 8.0 | 14.0 | 0.00 | 0.00 | 0.00 | 20 | 1013.2 |
| 20260504234656 | 64 | 290 | 10.0 | 17.0 | 0.00 | 0.00 | 0.00 | 20 | 1013.1 |
| 20260504234153 | 64 | 290 | 13.0 | 17.0 | 0.00 | 0.00 | 0.00 | 20 | 1013.1 |
| 20260504233649 | 64 | 269 | 9.0 | 10.0 | 0.00 | 0.00 | 0.00 | 20 | 1013.1 |
| 20260504233145 | 64 | 274 | 9.0 | 12.0 | 0.00 | 0.00 | 0.00 | 20 | 1012.9 |
| 20260504232643 | 64 | 244 | 8.0 | 10.0 | 0.00 | 0.00 | 0.00 | 19 | 1013.3 |
| 20260504232140 | 64 | 235 | 7.0 | 10.0 | 0.00 | 0.00 | 0.00 | 19 | 1013.1 |
| 20260504231636 | 64 | 241 | 9.0 | 14.0 | 0.00 | 0.00 | 0.00 | 19 | 1013.2 |
| 20260504231132 | 65 | 293 | 10.0 | 12.0 | 0.00 | 0.00 | 0.00 | 18 | 1012.9 |
| 20260504230629 | 65 | 276 | 7.0 | 12.0 | 0.00 | 0.00 | 0.00 | 19 | 1012.8 |
| 20260504230128 | 65 | 253 | 7.0 | 9.0 | 0.00 | 0.00 | 0.00 | 18 | 1013.1 |
| 20260504225626 | 65 | 251 | 11.0 | 14.0 | 0.00 | 0.00 | 0.00 | 18 | 1013.2 |
| 20260504225121 | 65 | 245 | 13.0 | 17.0 | 0.00 | 0.00 | 0.00 | 19 | 1013.1 |
| 20260504224618 | 65 | 258 | 5.0 | 7.0 | 0.00 | 0.00 | 0.00 | 21 | 1013.3 |
| 20260504224115 | 65 | 236 | 11.0 | 14.0 | 0.00 | 0.00 | 0.00 | 22 | 1013.3 |
| 20260504223612 | 66 | 232 | 11.0 | 15.0 | 0.00 | 0.00 | 0.00 | 23 | 1013.4 |
| 20260504223108 | 65 | 263 | 9.0 | 10.0 | 0.00 | 0.00 | 0.00 | 23 | 1013.3 |
| 20260504222605 | 65 | 255 | 13.0 | 15.0 | 0.00 | 0.00 | 0.00 | 24 | 1013.2 |
| 20260504222102 | 66 | 246 | 8.0 | 15.0 | 0.00 | 0.00 | 0.00 | 22 | 1013.6 |
| 20260504221559 | 66 | 266 | 13.0 | 17.0 | 0.00 | 0.00 | 0.00 | 22 | 1013.6 |
| 20260504221056 | 66 | 293 | 11.0 | 14.0 | 0.00 | 0.00 | 0.00 | 24 | 1013.6 |
| 20260504220553 | 67 | 317 | 9.0 | 15.0 | 0.00 | 0.00 | 0.00 | 23 | 1013.7 |
| 20260504220050 | 67 | 271 | 10.0 | 17.0 | 0.00 | 0.00 | 0.00 | 24 | 1013.6 |
| 20260504215546 | 67 | 309 | 10.0 | 12.0 | 0.00 | 0.00 | 0.00 | 24 | 1013.7 |
| 20260504215044 | 68 | 261 | 11.0 | 12.0 | 0.00 | 0.00 | 0.00 | 23 | 1013.7 |
| 20260504214539 | 68 | 214 | 10.0 | 17.0 | 0.00 | 0.00 | 0.00 | 24 | 1013.9 |
| 20260504214036 | 67 | 295 | 7.0 | 9.0 | 0.00 | 0.00 | 0.00 | 24 | 1014.2 |
| 20260504213532 | 66 | 246 | 11.0 | 17.0 | 0.00 | 0.00 | 0.00 | 24 | 1014.3 |
| 20260504213030 | 67 | 286 | 14.0 | 19.0 | 0.00 | 0.00 | 0.00 | 23 | 1014.2 |
| 20260504212525 | 66 | 247 | 9.0 | 12.0 | 0.00 | 0.00 | 0.00 | 25 | 1013.9 |
| 20260504212023 | 66 | 255 | 12.0 | 14.0 | 0.00 | 0.00 | 0.00 | 24 | 1014.2 |
| 20260504211520 | 66 | 281 | 10.0 | 17.0 | 0.00 | 0.00 | 0.00 | 25 | 1014.4 |
| 20260504211017 | 67 | 330 | 9.0 | 10.0 | 0.00 | 0.00 | 0.00 | 24 | 1014.4 |
| 20260504210514 | 66 | 241 | 21.0 | 29.0 | 0.00 | 0.00 | 0.00 | 24 | 1013.9 |
| 20260504210011 | 68 | 279 | 8.0 | 15.0 | 0.00 | 0.00 | 0.00 | 24 | 1014.3 |
| 20260504205509 | 66 | 322 | 12.0 | 15.0 | 0.00 | 0.00 | 0.00 | 23 | 1014.3 |
| 20260504205006 | 66 | 239 | 12.0 | 14.0 | 0.00 | 0.00 | 0.00 | 23 | 1014.4 |
| 20260504204503 | 66 | 310 | 14.0 | 21.0 | 0.00 | 0.00 | 0.00 | 24 | 1014.7 |
| 20260504204003 | 65 | 291 | 10.0 | 12.0 | 0.00 | 0.00 | 0.00 | 25 | 1014.8 |
| 20260504203500 | 64 | 224 | 16.0 | 19.0 | 0.00 | 0.00 | 0.00 | 25 | 1014.9 |
| 20260504202956 | 64 | 242 | 11.0 | 12.0 | 0.00 | 0.00 | 0.00 | 25 | 1015.1 |
| 20260504202452 | 65 | 238 | 12.0 | 14.0 | 0.00 | 0.00 | 0.00 | 25 | 1015.1 |
| 20260504201949 | 64 | 304 | 14.0 | 15.0 | 0.00 | 0.00 | 0.00 | 26 | 1014.9 |
| 20260504201446 | 65 | 264 | 11.0 | 17.0 | 0.00 | 0.00 | 0.00 | 25 | 1015.3 |
| 20260504200944 | 64 | 227 | 11.0 | 17.0 | 0.00 | 0.00 | 0.00 | 26 | 1015.2 |
| 20260504200441 | 65 | 306 | 13.0 | 19.0 | 0.00 | 0.00 | 0.00 | 26 | 1015.7 |
| 20260504195938 | 64 | 13 | 12.0 | 19.0 | 0.00 | 0.00 | 0.00 | 26 | 1015.7 |
| 20260504195434 | 64 | 247 | 8.0 | 10.0 | 0.00 | 0.00 | 0.00 | 26 | 1015.8 |
| 20260504194931 | 63 | 266 | 7.0 | 9.0 | 0.00 | 0.00 | 0.00 | 27 | 1015.6 |
| 20260504194426 | 62 | 278 | 8.0 | 10.0 | 0.00 | 0.00 | 0.00 | 28 | 1015.4 |
| 20260504193923 | 62 | 285 | 12.0 | 15.0 | 0.00 | 0.00 | 0.00 | 28 | 1015.7 |
| 20260504193420 | 62 | 291 | 12.0 | 17.0 | 0.00 | 0.00 | 0.00 | 28 | 1015.4 |
| 20260504192919 | 64 | 266 | 10.0 | 14.0 | 0.00 | 0.00 | 0.00 | 28 | 1015.3 |
| 20260504192415 | 63 | 313 | 15.0 | 22.0 | 0.00 | 0.00 | 0.00 | 27 | 1015.7 |
| 20260504191914 | 63 | 258 | 12.0 | 15.0 | 0.00 | 0.00 | 0.00 | 27 | 1015.8 |
| 20260504191411 | 64 | 240 | 5.0 | 9.0 | 0.00 | 0.00 | 0.00 | 26 | 1016.0 |
| 20260504190906 | 64 | 253 | 8.0 | 9.0 | 0.00 | 0.00 | 0.00 | 28 | 1015.7 |
| 20260504190402 | 63 | 264 | 11.0 | 15.0 | 0.00 | 0.00 | 0.00 | 27 | 1015.9 |
| 20260504185859 | 62 | 227 | 11.0 | 14.0 | 0.00 | 0.00 | 0.00 | 27 | 1016.3 |
| 20260504185356 | 63 | 294 | 11.0 | 15.0 | 0.00 | 0.00 | 0.00 | 26 | 1016.2 |
| 20260504184852 | 64 | 247 | 13.0 | 21.0 | 0.00 | 0.00 | 0.00 | 26 | 1016.3 |
| 20260504184348 | 63 | 241 | 11.0 | 15.0 | 0.00 | 0.00 | 0.00 | 26 | 1015.9 |
| 20260504183844 | 62 | 250 | 12.0 | 22.0 | 0.00 | 0.00 | 0.00 | 26 | 1015.8 |
| 20260504183342 | 63 | 277 | 16.0 | 22.0 | 0.00 | 0.00 | 0.00 | 25 | 1016.2 |
| 20260504182839 | 63 | 266 | 7.0 | 10.0 | 0.00 | 0.00 | 0.00 | 24 | 1016.4 |
| 20260504182337 | 63 | 279 | 13.0 | 22.0 | 0.00 | 0.00 | 0.00 | 26 | 1016.3 |
| 20260504181834 | 63 | 234 | 9.0 | 14.0 | 0.00 | 0.00 | 0.00 | 27 | 1016.5 |
| 20260504181331 | 63 | 278 | 10.0 | 15.0 | 0.00 | 0.00 | 0.00 | 29 | 1016.5 |
| 20260504180830 | 63 | 236 | 10.0 | 19.0 | 0.00 | 0.00 | 0.00 | 29 | 1016.4 |
| 20260504180328 | 63 | 303 | 11.0 | 14.0 | 0.00 | 0.00 | 0.00 | 28 | 1016.5 |
| 20260504175826 | 63 | 228 | 11.0 | 19.0 | 0.00 | 0.00 | 0.00 | 29 | 1016.7 |
| 20260504175322 | 63 | 246 | 9.0 | 17.0 | 0.00 | 0.00 | 0.00 | 31 | 1016.8 |
| 20260504174820 | 62 | 275 | 5.0 | 7.0 | 0.00 | 0.00 | 0.00 | 32 | 1016.8 |
| 20260504174317 | 62 | 228 | 11.0 | 19.0 | 0.00 | 0.00 | 0.00 | 33 | 1017.2 |
| 20260504173814 | 60 | 235 | 7.0 | 10.0 | 0.00 | 0.00 | 0.00 | 32 | 1017.2 |
| 20260504173311 | 60 | 257 | 7.0 | 10.0 | 0.00 | 0.00 | 0.00 | 33 | 1017.3 |
| 20260504172809 | 59 | 251 | 11.0 | 19.0 | 0.00 | 0.00 | 0.00 | 33 | 1017.2 |
| 20260504172305 | 59 | 212 | 6.0 | 9.0 | 0.00 | 0.00 | 0.00 | 34 | 1017.0 |
| 20260504171801 | 59 | 234 | 9.0 | 12.0 | 0.00 | 0.00 | 0.00 | 35 | 1017.4 |
| 20260504171258 | 59 | 257 | 9.0 | 14.0 | 0.00 | 0.00 | 0.00 | 36 | 1017.3 |
| 20260504170755 | 59 | 271 | 8.0 | 12.0 | 0.00 | 0.00 | 0.00 | 36 | 1017.5 |
| 20260504170252 | 59 | 261 | 8.0 | 10.0 | 0.00 | 0.00 | 0.00 | 36 | 1017.3 |
| 20260504160210 | 59 | 236 | 5.0 | 10.0 | 0.00 | 0.00 | 0.00 | 39 | 1017.3 |
| 20260504151138 | 57 | 276 | 3.0 | 3.0 | 0.00 | 0.00 | 0.00 | 48 | 1017.7 |
| 20260504150636 | 56 | 300 | 4.0 | 5.0 | 0.00 | 0.00 | 0.00 | 49 | 1017.8 |
| 20260504150132 | 55 | 308 | 7.0 | 9.0 | 0.00 | 0.00 | 0.00 | 50 | 1017.8 |
| 20260504141101 | 54 | 260 | 7.0 | 10.0 | 0.00 | 0.00 | 0.00 | 56 | 1017.5 |
| 20260504140558 | 54 | 263 | 10.0 | 12.0 | 0.00 | 0.00 | 0.00 | 56 | 1017.7 |
| 20260504130522 | 51 | 270 | 7.0 | 12.0 | 0.00 | 0.00 | 0.00 | 65 | 1017.3 |
| 20260504110409 | 51 | 225 | 5.0 | 5.0 | 0.00 | 0.00 | 0.00 | 65 | 1016.3 |
| 20260504100326 | 50 | 253 | 2.0 | 2.0 | 0.00 | 0.00 | 0.00 | 68 | 1016.2 |
| 20260504081720 | 51 | 253 | 0.0 | 0.0 | 0.00 | 0.00 | 0.00 | 67 | 1017.2 |
| 20260504081216 | 52 | 249 | 2.0 | 2.0 | 0.00 | 0.00 | 0.00 | 66 | 1017.0 |
| 20260504080712 | 52 | 240 | 1.0 | 3.0 | 0.00 | 0.00 | 0.00 | 65 | 1017.3 |
| 20260504080209 | 52 | 236 | 4.0 | 5.0 | 0.00 | 0.00 | 0.00 | 65 | 1017.4 |
| 20260504070137 | 54 | 252 | 3.0 | 3.0 | 0.00 | 0.00 | 0.00 | 58 | 1017.7 |
| 20260504050525 | 54 | 241 | 8.0 | 10.0 | 0.00 | 0.00 | 0.00 | 55 | 1018.7 |
| 20260504050022 | 54 | 244 | 11.0 | 14.0 | 0.00 | 0.00 | 0.00 | 55 | 1018.4 |
| 20260504045519 | 54 | 270 | 12.0 | 15.0 | 0.00 | 0.00 | 0.00 | 55 | 1018.5 |
| 20260504045014 | 54 | 238 | 8.0 | 10.0 | 0.00 | 0.00 | 0.00 | 56 | 1018.4 |
| 20260504044512 | 53 | 254 | 5.0 | 7.0 | 0.00 | 0.00 | 0.00 | 57 | 1018.7 |
| 20260504044009 | 53 | 260 | 3.0 | 3.0 | 0.00 | 0.00 | 0.00 | 60 | 1018.8 |
| 20260504043506 | 53 | 263 | 2.0 | 2.0 | 0.00 | 0.00 | 0.00 | 61 | 1018.7 |
| 20260504043003 | 53 | 261 | 3.0 | 3.0 | 0.00 | 0.00 | 0.00 | 62 | 1018.7 |
| 20260504042500 | 53 | 244 | 5.0 | 7.0 | 0.00 | 0.00 | 0.00 | 57 | 1018.7 |
| 20260504041957 | 53 | 240 | 2.0 | 3.0 | 0.00 | 0.00 | 0.00 | 57 | 1018.7 |
| 20260504041453 | 54 | 275 | 4.0 | 5.0 | 0.00 | 0.00 | 0.00 | 57 | 1018.7 |
| 20260504040948 | 54 | 243 | 8.0 | 10.0 | 0.00 | 0.00 | 0.00 | 56 | 1018.7 |
| 20260504040447 | 54 | 276 | 5.0 | 5.0 | 0.00 | 0.00 | 0.00 | 56 | 1018.5 |
| 20260504035942 | 53 | 245 | 5.0 | 7.0 | 0.00 | 0.00 | 0.00 | 56 | 1018.5 |
| 20260504035440 | 53 | 264 | 3.0 | 3.0 | 0.00 | 0.00 | 0.00 | 56 | 1018.7 |
| 20260504034936 | 53 | 270 | 6.0 | 9.0 | 0.00 | 0.00 | 0.00 | 56 | 1018.7 |
| 20260504034434 | 54 | 251 | 3.0 | 3.0 | 0.00 | 0.00 | 0.00 | 55 | 1018.4 |
| 20260504033931 | 54 | 256 | 6.0 | 9.0 | 0.00 | 0.00 | 0.00 | 55 | 1018.5 |
| 20260504033429 | 54 | 235 | 6.0 | 9.0 | 0.00 | 0.00 | 0.00 | 54 | 1018.5 |
| 20260504032926 | 54 | 231 | 6.0 | 9.0 | 0.00 | 0.00 | 0.00 | 53 | 1018.4 |
| 20260504032422 | 54 | 268 | 9.0 | 12.0 | 0.00 | 0.00 | 0.00 | 53 | 1018.4 |
| 20260504031919 | 54 | 236 | 9.0 | 10.0 | 0.00 | 0.00 | 0.00 | 53 | 1018.4 |
| 20260504031417 | 54 | 249 | 9.0 | 14.0 | 0.00 | 0.00 | 0.00 | 53 | 1018.2 |
| 20260504030913 | 55 | 245 | 10.0 | 14.0 | 0.00 | 0.00 | 0.00 | 53 | 1018.2 |
| 20260504030410 | 54 | 252 | 12.0 | 14.0 | 0.00 | 0.00 | 0.00 | 53 | 1018.4 |
| 20260504025906 | 55 | 224 | 8.0 | 9.0 | 0.00 | 0.00 | 0.00 | 53 | 1018.4 |
| 20260504025403 | 55 | 253 | 9.0 | 12.0 | 0.00 | 0.00 | 0.00 | 53 | 1018.3 |
| 20260504024900 | 55 | 223 | 9.0 | 10.0 | 0.00 | 0.00 | 0.00 | 54 | 1018.0 |
| 20260504024356 | 55 | 253 | 7.0 | 9.0 | 0.00 | 0.00 | 0.00 | 54 | 1018.2 |
| 20260504023854 | 55 | 279 | 9.0 | 10.0 | 0.00 | 0.00 | 0.00 | 53 | 1017.9 |
| 20260504023350 | 55 | 240 | 11.0 | 15.0 | 0.00 | 0.00 | 0.00 | 52 | 1018.0 |
| 20260504022846 | 55 | 286 | 13.0 | 15.0 | 0.00 | 0.00 | 0.00 | 53 | 1017.7 |
| 20260504022343 | 55 | 222 | 10.0 | 14.0 | 0.00 | 0.00 | 0.00 | 54 | 1017.8 |
| 20260504021839 | 55 | 241 | 9.0 | 10.0 | 0.00 | 0.00 | 0.00 | 55 | 1017.7 |
| 20260504021337 | 55 | 249 | 8.0 | 10.0 | 0.00 | 0.00 | 0.00 | 56 | 1017.9 |
| 20260504020833 | 56 | 278 | 8.0 | 10.0 | 0.00 | 0.00 | 0.00 | 56 | 1018.0 |
| 20260504020330 | 56 | 233 | 11.0 | 15.0 | 0.00 | 0.00 | 0.00 | 56 | 1018.2 |
| 20260504015826 | 56 | 220 | 11.0 | 12.0 | 0.00 | 0.00 | 0.00 | 55 | 1017.9 |
| 20260504015323 | 57 | 245 | 14.0 | 17.0 | 0.00 | 0.00 | 0.00 | 55 | 1018.3 |
| 20260504014819 | 57 | 230 | 8.0 | 12.0 | 0.00 | 0.00 | 0.00 | 52 | 1017.9 |
| 20260504014315 | 59 | 236 | 7.0 | 10.0 | 0.00 | 0.00 | 0.00 | 39 | 1018.0 |
| 20260504013813 | 59 | 248 | 3.0 | 3.0 | 0.00 | 0.00 | 0.00 | 38 | 1017.8 |
| 20260504013311 | 59 | 290 | 5.0 | 9.0 | 0.00 | 0.00 | 0.00 | 38 | 1017.5 |
| 20260504012807 | 59 | 270 | 3.0 | 5.0 | 0.00 | 0.00 | 0.00 | 37 | 1017.5 |
| 20260504012305 | 60 | 248 | 3.0 | 3.0 | 0.00 | 0.00 | 0.00 | 37 | 1017.5 |
| 20260504011802 | 60 | 259 | 1.0 | 2.0 | 0.00 | 0.00 | 0.00 | 37 | 1017.5 |
| 20260504011258 | 60 | 256 | 3.0 | 5.0 | 0.00 | 0.00 | 0.00 | 36 | 1017.4 |